Home > Weather > Ajaccio > Past weeks

Flag for France Weather for the Past 2 Weeks in Ajaccio, Corsica, France

Now
61 °F

Passing clouds.


Feels Like: 61 °F
Forecast: 54 / 66 °F
Wind: 10 mph from Southwest

Location: Ajaccio Airport

Current Time: May 3, 2016 at 9:06:19 PM

Latest Report: May 3, 2016 at 8:30 PM


Visibility: N/A

Pressure: 29.95 "Hg

Humidity: 77%

Dew Point: 54 °F

Location of AjaccioLocation

Historic Weather in Ajaccio — Graph

°F

Ajaccio Temperature Yesterday

Maximum temperature yesterday: 66 °F (at 5:00 PM)
Minimum temperature yesterday: 45 °F (at 2:00 AM)
Average temperature yesterday: 57 °F

High & Low Weather Summary for the Past Weeks

 TemperatureHumidityPressure
High72 °F (Apr 21, 2:10 PM)94% (Apr 22, 1:00 AM)30.15 "Hg (Apr 22, 1:00 AM)
Low43 °F (Apr 19, 7:00 AM)19% (Apr 25, 10:30 AM)29.62 "Hg (Apr 24, 5:30 AM)
Average57 °F71%29.94 "Hg
* Reported Apr 18 8:00 PM — May 3 8:00 PM, Ajaccio, Weather by CustomWeather, © 2016

Note: Actual official high and low records may vary slightly from our data, if they occured in-between our weather recording intervals... More about our weather records

Advertising

Ajaccio Weather History for the Previous 24 Hours

Scroll right to see more
 ConditionsComfort  
Time TempWeatherWind HumidityBarometerVisibility
8:00 PM
Tue, May 3
61 °FSunny.12 mph77%29.95 "Hg10 mi
7:30 PM61 °FSunny.9 mph77%29.95 "Hg10 mi
7:00 PM63 °FSunny.10 mph73%29.95 "Hg10 mi
6:30 PM64 °FSunny.8 mph68%29.95 "Hg10 mi
6:00 PM64 °FPartly sunny.8 mph68%29.98 "HgN/A
5:30 PM64 °FPartly sunny.8 mph68%29.98 "HgN/A
5:00 PM64 °FPartly sunny.8 mph68%29.98 "HgN/A
4:30 PM66 °FScattered clouds.10 mph64%29.98 "HgN/A
4:00 PM66 °FPassing clouds.12 mph68%29.98 "HgN/A
3:30 PM66 °FPassing clouds.12 mph73%29.98 "HgN/A
3:00 PM66 °FPassing clouds.10 mph73%29.98 "HgN/A
2:30 PM66 °FPassing clouds.9 mph73%29.98 "HgN/A
1:30 PM66 °FPassing clouds.9 mph73%30.01 "HgN/A
1:00 PM66 °FPassing clouds.12 mph73%30.01 "HgN/A
12:00 PM66 °FPassing clouds.14 mph64%30.01 "HgN/A
11:30 AM66 °FPassing clouds.10 mph56%30.01 "HgN/A
11:00 AM68 °FPassing clouds.5 mph46%29.98 "HgN/A
10:30 AM66 °FPassing clouds.5 mph49%29.98 "HgN/A
10:00 AM66 °FPassing clouds.2 mph46%29.98 "HgN/A
9:30 AM64 °FSunny.2 mph52%29.98 "Hg10 mi
9:00 AM61 °FSunny.2 mph59%29.98 "Hg10 mi
8:30 AM57 °FSunny.3 mph67%29.98 "Hg10 mi
8:00 AM54 °FSunny.5 mph72%29.98 "Hg10 mi
7:30 AM48 °FSunny.6 mph82%29.98 "Hg10 mi
7:00 AM46 °FClear.6 mph87%29.98 "Hg10 mi
6:30 AM46 °FClear.6 mph87%29.98 "Hg10 mi
6:00 AM46 °FClear.8 mph87%29.95 "Hg10 mi
5:30 AM48 °FClear.7 mph82%29.95 "Hg10 mi
5:00 AM46 °FClear.8 mph87%29.98 "Hg10 mi
4:30 AM46 °FClear.5 mph87%29.98 "Hg10 mi
3:30 AM46 °FClear.6 mph87%29.95 "Hg10 mi
3:00 AM48 °FClear.6 mph82%29.95 "Hg10 mi
2:30 AM48 °FPassing clouds.6 mph82%29.95 "HgN/A
2:00 AM50 °FClear.7 mph82%29.98 "Hg10 mi
1:30 AM50 °FClear.8 mph82%29.98 "Hg10 mi
1:00 AM50 °FPassing clouds.5 mph82%29.95 "HgN/A
12:30 AM52 °FClear.6 mph77%29.95 "Hg10 mi
12:00 AM52 °FPassing clouds.3 mph77%29.95 "HgN/A
11:00 PM
Mon, May 2
54 °FClear.7 mph77%29.92 "Hg10 mi
10:30 PM57 °FClear.7 mph72%29.92 "Hg10 mi
10:00 PM57 °FClear.8 mph72%29.92 "Hg10 mi
9:30 PM59 °FPassing clouds.7 mph68%29.89 "HgN/A
9:00 PM61 °FSunny.3 mph63%29.89 "Hg10 mi
Weather by CustomWeather, © 2016

See weather overviewHow to use our weather pages